Location: Potomac
(46.8816°N, 113.5795°W)
Time: 11:43:52
(UTC+00:00)

Gurwin Techsat 1B - Pass Details

Date: 03 July 2022
Orbit: 812 x 813 km, 98.8° (Epoch: 10 August)

Event Time Altitude Azimuth Distance (km) Brightness Sun altitude
Rises 09:39:21 0° 20° (NNE) 3,346 13.6 -15.0°
Reaches altitude 10° 09:41:50 10° 27° (NNE) 2,410 12.5 -14.8°
Maximum altitude 09:46:53 43° 98° (E) 1,137 9.5 -14.4°
Enters shadow 09:51:46 11° 169° (S) 2,347 10.6 -14.0°
